CST,Max TemperatureF,Mean TemperatureF,Min TemperatureF,Max Dew PointF,MeanDew PointF,Min DewpointF,Max Humidity, Mean Humidity, Min Humidity, Max Sea Level PressureIn, Mean Sea Level PressureIn, Min Sea Level PressureIn, Max VisibilityMiles, Mean VisibilityMiles, Min VisibilityMiles, Max Wind SpeedMPH, Mean Wind SpeedMPH, Max Gust SpeedMPH,PrecipitationIn, CloudCover, Events, WindDirDegrees
2011-12-1,52,38,24,34,28,20,89,67,44,30.36,30.31,30.24,10,10,6,10,2,13,0.00,0,,119
2011-12-2,55,44,32,41,36,28,89,72,54,30.43,30.38,30.35,10,10,10,8,2,26,0.00,2,,63
2011-12-3,64,51,37,49,41,33,86,69,51,30.33,30.22,30.08,10,10,10,22,9,29,0.00,3,,162
2011-12-4,60,53,45,57,50,45,100,84,67,30.16,30.10,30.04,10,5,1,22,9,31,2.97,8,Rain,339
2011-12-5,45,40,35,38,33,28,100,88,75,30.21,30.14,30.05,10,7,4,26,12,32,1.84,8,Rain,9
2011-12-6,37,36,34,32,31,28,89,82,75,30.25,30.19,30.14,10,7,2,13,7,18,0.02,8,Rain-Snow,346
2011-12-7,40,34,27,30,28,24,92,73,54,30.31,30.19,30.11,10,6,1,14,6,21,0.16,6,Snow,314
2011-12-8,47,36,24,31,26,21,92,67,42,30.37,30.28,30.22,10,9,6,16,4,18,0.00,0,,189
2011-12-9,50,38,25,32,27,22,92,67,42,30.50,30.34,30.24,10,10,6,18,4,23,0.00,0,,3
2011-12-10,40,33,26,26,23,21,78,63,48,30.64,30.56,30.51,10,10,10,9,6,63,0.00,0,,40
2011-12-11,45,34,22,27,23,18,88,64,40,30.57,30.48,30.40,10,10,10,9,4,12,0.00,0,,64
2011-12-12,52,39,26,37,30,21,81,63,44,30.43,30.39,30.35,10,10,10,7,2,18,0.00,2,,64
2011-12-13,59,52,44,47,44,35,93,79,65,30.47,30.36,30.29,10,6,0,12,4,17,T,5,Fog-Rain,135
2011-12-14,65,58,50,57,52,46,93,83,72,30.27,30.13,29.94,10,7,1,30,13,40,T,7,Rain,188
2011-12-15,64,54,43,59,53,36,90,76,61,30.27,30.06,29.95,10,8,2,29,11,81,0.64,6,Rain,244
2011-12-16,43,36,28,36,30,26,89,76,62,30.43,30.37,30.30,10,9,5,16,6,,0.27,5,Rain,20
2011-12-17,50,38,25,34,29,22,92,71,49,30.46,30.41,30.36,10,8,4,12,4,15,0.00,0,,257
2011-12-18,57,44,30,39,34,28,89,68,47,30.39,30.31,30.19,10,10,8,13,5,17,0.00,1,,214
2011-12-19,53,49,45,40,38,36,76,68,59,30.18,30.11,30.02,10,10,10,14,7,18,0.00,5,,157
2011-12-20,61,54,46,57,50,39,93,82,71,30.02,29.86,29.77,10,6,1,21,8,25,0.68,7,Rain-Thunderstorm,161
2011-12-21,55,47,39,42,38,35,86,79,71,30.03,29.94,29.81,10,10,10,21,7,30,0.00,3,,236
2011-12-22,47,44,40,43,39,36,92,84,76,30.27,30.09,29.98,10,9,4,13,4,16,0.15,5,Rain,3
2011-12-23,43,37,30,36,31,27,85,75,65,30.45,30.39,30.27,10,10,7,10,3,16,0.00,7,,350
2011-12-24,48,37,25,34,29,22,92,75,58,30.54,30.45,30.40,10,9,5,10,1,13,0.00,0,,236
2011-12-25,57,44,31,34,31,24,85,57,28,30.43,30.37,30.33,10,10,10,7,2,7,0.00,0,,273
2011-12-26,42,37,31,39,35,28,100,83,65,30.35,30.11,29.83,10,8,4,25,8,30,0.85,5,Rain,56
2011-12-27,52,43,33,38,34,28,100,72,44,30.13,29.93,29.80,10,9,5,21,11,29,0.15,4,Rain-Snow,287
2011-12-28,49,39,29,33,29,25,92,69,46,30.19,30.11,30.04,10,10,10,13,4,16,0.00,0,,246
2011-12-29,57,46,35,45,37,30,86,67,47,30.01,29.92,29.83,10,10,10,21,9,25,0.00,0,,211
2011-12-30,61,50,39,46,41,30,86,68,49,30.00,29.87,29.78,10,10,10,22,9,28,0.00,0,,231
2011-12-31,62,47,32,51,36,28,82,59,36,30.09,29.98,29.88,10,10,10,24,9,29,0.00,1,,188